Location: Unspecified
(0.0000°N, 0.0000°E)
Time: 21:16:55
(UTC+00:00)

Explorer 7 - Pass Details

Date: 17 June 2025
Orbit: 444 x 569 km, 50.3° (Epoch: 12 July)

Event Time Altitude Azimuth Distance (km) Brightness Sun altitude
Rises 23:50:13 0° 327° (NNW) 2,478 - -66.4°
Reaches altitude 10° 23:52:20 10° 329° (NNW) 1,624 - -66.5°
Maximum altitude 23:55:59 71° 53° (NE) 513 - -66.6°
Drops below altitude 10° 23:59:49 10° 138° (SE) 1,705 - -66.6°
Sets 00:02:05 0° 140° (SE) 2,616 - -66.6°
